Flag for Poland Weather past 2 weeks in Tychy, Poland

Now
63 °F

Sunny.


Feels Like: 63 °F
Forecast: 51 / 69 °F
Wind: 8 mph from East

Location: Katowice Airport


UV Index: 3 (Moderate)

Visibility: 10 mi


Pressure: 30.04 "Hg

Humidity: 68%

Dew point: 52 °F

Location of TychyLocation

Historic Weather in Tychy

°F

Tychy temperature yesterday

Maximum temperature yesterday: 66 °F (at 11:30 AM)
Minimum temperature yesterday: 48 °F (at 2:30 AM)
Average temperature yesterday: 56 °F

Past Weeks' High & Low Weather Summary

 TemperatureHumidityPressure
High72 °F (Apr 22, 3:30 PM)100% (Apr 10, 5:00 AM)30.33 "Hg (Apr 10, 5:00 AM)
Low28 °F (Apr 13, 5:30 AM)31% (Apr 18, 1:30 PM)29.68 "Hg (Apr 14, 11:30 AM)
Average48 °F80%29.98 "Hg
* Reported Apr 9 6:00 PM — Apr 24 6:30 PM, Tychy, Weather by CustomWeather, © 2014

Note: Actual official high and low records may vary slightly from our data, if they occured in-between our weather recording intervals... More about our weather records

Advertising

Historic Weather Conditions — Data for Previous 24 hours

 ConditionsComfort  
Time TempWeatherWind HumidityBarometerVisibility
6:30 PM
Apr 24
64 °FScattered clouds.12 mph56%30.04 "HgN/A
6:00 PM64 °FPartly sunny.14 mph52%30.04 "HgN/A
5:30 PM66 °FPartly sunny.17 mph52%30.04 "HgN/A
5:00 PM66 °FScattered clouds.9 mph49%30.04 "HgN/A
4:30 PM66 °FScattered clouds.13 mph64%30.04 "HgN/A
4:00 PM66 °FScattered clouds.16 mph60%30.04 "HgN/A
3:30 PM68 °FPassing clouds.17 mph49%30.04 "HgN/A
3:00 PM68 °FPassing clouds.15 mph53%30.04 "HgN/A
2:30 PM68 °FPassing clouds.14 mph53%30.07 "HgN/A
2:00 PM68 °FPassing clouds.14 mph53%30.07 "HgN/A
1:30 PM68 °FPassing clouds.17 mph53%30.07 "HgN/A
1:00 PM70 °FPassing clouds.14 mph50%30.07 "HgN/A
12:30 PM68 °FSunny.16 mph56%30.07 "Hg10 mi
12:00 PM66 °FSunny.14 mph60%30.07 "Hg10 mi
11:30 AM66 °FPassing clouds.9 mph60%30.07 "HgN/A
11:00 AM64 °FSunny.8 mph68%30.09 "Hg10 mi
10:30 AM63 °FPassing clouds.6 mph73%30.09 "HgN/A
10:00 AM61 °FPassing clouds.5 mph77%30.09 "HgN/A
9:30 AM59 °FPassing clouds.5 mph77%30.09 "HgN/A
9:00 AM57 °FSunny.3 mph82%30.09 "Hg10 mi
8:30 AM55 °FClear.2 mph94%30.09 "Hg4 mi
8:00 AM52 °FFog.2 mph100%30.09 "Hg2 mi
7:30 AM48 °FFog.2 mph100%30.09 "Hg1 mi
7:00 AM46 °FFog.1 mph100%30.07 "Hg1 mi
6:30 AM46 °FFog.1 mph100%30.07 "Hg1 mi
6:00 AM43 °FQuite cool.1 mph100%30.07 "Hg1 mi
5:30 AM43 °FQuite cool.1 mph100%30.07 "Hg1 mi
5:00 AM43 °FQuite cool.1 mph100%30.07 "Hg1 mi
4:30 AM43 °FQuite cool.1 mph100%30.07 "Hg1 mi
4:00 AM45 °FFog.1 mph100%30.07 "Hg1 mi
3:30 AM45 °FFog.No wind100%30.07 "Hg1 mi
3:00 AM45 °FFog.1 mph100%30.07 "Hg0 mi
2:30 AM45 °FQuite cool.1 mph100%30.07 "Hg1 mi
2:00 AM46 °FFog.No wind100%30.07 "Hg1 mi
1:30 AM48 °FCool.1 mph100%30.09 "Hg1 mi
1:00 AM48 °FCool.No wind100%30.07 "Hg1 mi
12:30 AM50 °FCool.1 mph94%30.07 "Hg1 mi
12:00 AM50 °FFog.1 mph94%30.07 "Hg1 mi
11:30 PM
Apr 23
52 °FCool.1 mph100%30.07 "Hg2 mi
11:00 PM52 °FCool.3 mph100%30.09 "Hg3 mi
10:30 PM54 °FFog.2 mph100%30.09 "Hg3 mi
10:00 PM54 °FFog.1 mph100%30.09 "Hg3 mi
9:30 PM55 °FCool.2 mph100%30.09 "Hg2 mi
9:00 PM55 °FCool.2 mph100%30.09 "Hg1 mi
8:30 PM57 °FSunny.No wind100%30.09 "Hg10 mi
8:00 PM59 °FSunny.2 mph94%30.07 "Hg10 mi
7:30 PM59 °FPassing clouds.2 mph94%30.07 "HgN/A
7:00 PM59 °FSprinkles. Scattered clouds.7 mph88%30.07 "HgN/A
Weather by CustomWeather, © 2014

See weather overview